Regional Weather Roundup
Issued by NWS

Home | Current Version | Previous Version | Text Only | Print | Product List | Glossary Off
Versions: 1 2 3 4 5 6 7 8 9 10 11 12 13 14 15 16 17 18 19 20 21 22 23 24 25 26 27 28 29 30 31 32 33 34 35 36 37 38 39 40 41 42 43 44 45 46 47 48 49 50

711
ASUS44 KLIX 301310
RWRLA
LOUISIANA WEATHER ROUNDUP
NATIONAL WEATHER SERVICE NEW ORLEANS LA
800 AM CDT WED JUL 30 2014

NOTE: "FAIR" INDICATES FEW OR NO CLOUDS BELOW 12,000 FEET WITH NO
      SIGNIFICANT WEATHER AND/OR OBSTRUCTIONS TO VISIBILITY.
      SKY/WX - SKY CONDITION AND SIGNIFICANT WEATHER.
      TMP - AIR TEMPERATURE.    DP   - DEWPOINT TEMPERATURE.
      RH  - RELATIVE HUMIDITY.  PRES - PRESSURE.
      HX  - HEAT INDEX.         WCI  - WIND CHILL INDEX.

*  THESE STATIONS ARE NOT NWS OR FAA STATIONS AND ARE NOT UNDER
   NWS QUALITY CONTROL.

LAZ040-048-061>063-065-066-069-301400-
SOUTHEAST LOUISIANA

CITY           SKY/WX    TMP DP  RH WIND       PRES   REMARKS
N.O. AUDUBON     N/A     79  62  55 MISG        N/A
N.O. INTL ARPT MOSUNNY   78  62  57 E7        30.07R
N.O. LAKEFRONT SUNNY     76  62  62 E13       30.08R
N.O. DOWNTOWN* FAIR      75  59  57 N5        30.07S
SLIDELL        SUNNY     71  63  75 NE5       30.07R
BATON ROUGE    SUNNY     72  63  73 NE5       30.09R
BOOTHVILLE     SUNNY     81  69  67 NE7       30.06R
BELLE CHASSE   MOSUNNY   76  64  66 NE6       30.06R
BOGALUSA*        N/A     69  62  78 CALM      30.10S
GALLIANO*      NOT AVBL
NEW ROADS*     FAIR      71  63  76 CALM      30.10S
GONZALES*      FAIR      72  65  80 NE5       30.08S
HAMMOND*       SUNNY     72  59  64 N3        30.10S
HOUMA*         SUNNY     75  64  69 NE6       30.07R
PORT FOURCHON* SUNNY     81  72  74 NE10      30.07S

$$

LAZ041-044-053-054-301400-
SOUTHWEST LOUISIANA

CITY           SKY/WX    TMP DP  RH WIND       PRES   REMARKS
LAKE CHARLES   SUNNY     74  68  81 E8        30.07S
LAFAYETTE      SUNNY     73  67  81 NE5       30.08S
PATTERSON      SUNNY     75  68  78 NE7       30.10S
SALT POINT       N/A     76  70  82 VRB3      30.06S
NEW IBERIA     SUNNY     75  66  73 NE6       30.09R
CHENAULT AIRPK NOT AVBL

$$

LAZ027-028-301400-
CENTRAL LOUISIANA

CITY           SKY/WX    TMP DP  RH WIND       PRES   REMARKS
FORT POLK      SUNNY     73  63  70 E9        30.09S
ALEXANDRIA INT SUNNY     73  65  75 E5        30.09R
ALEXANDRIA     SUNNY     70  66  87 CALM      30.11R

$$

LAZ001-002-301400-
NORTHWEST LOUISIANA

CITY           SKY/WX    TMP DP  RH WIND       PRES   REMARKS
SHREVEPORT     PTSUNNY   74  63  68 SE6       30.11R
BARKSDALE AFB  MOSUNNY   70  63  77 SE6       30.11R
DTN SHREVEPORT MOSUNNY   73  62  68 SE5       30.11R

$$

LAZ014-016-301400-
NORTHEAST LOUISIANA

CITY           SKY/WX    TMP DP  RH WIND       PRES   REMARKS
MONROE         SUNNY     69  63  81 CALM      30.13R
TALLULAH       SUNNY     68  64  87 CALM      30.12R

$$




USA.gov is the U.S. government's official web portal to all federal, state and local government web resources and services.